FW8758 Weather Reports


time (UTC)temp
C
wind
direction
speed
KPH
gust
KPH
rain 1hr
cm
rain 24hr
cm
rain mn
cm
humidity
%
barometer
mb
20260504081537 -1 0 0.0 1.6 0.00 0.00 0.00 83 1005.4
20260504044532 1 0 0.0 3.2 0.00 0.00 0.00 74 1006.0
20260504043032 1 0 0.0 3.2 0.00 0.00 0.00 75 1006.2
20260504041534 1 0 0.0 1.6 0.00 0.00 0.00 75 1006.3
20260504040042 1 0 0.0 3.2 0.00 0.00 0.00 74 1006.4
20260504034536 1 0 0.0 0.0 0.00 0.00 0.00 74 1006.3
20260504033036 2 0 0.0 3.2 0.00 0.00 0.00 73 1006.4
20260504031530 2 135 0.0 3.2 0.00 0.00 0.00 74 1006.5
20260504030036 2 0 0.0 0.0 0.00 0.00 0.00 71 1006.4
20260504024531 3 0 0.0 3.2 0.00 0.00 0.00 70 1006.6
20260504023033 3 0 0.0 3.2 0.00 0.00 0.00 69 1006.6
20260504021536 3 0 0.0 3.2 0.00 0.00 0.00 66 1006.8
20260504020032 4 0 0.0 0.0 0.00 0.00 0.00 66 1006.9
20260504014530 5 0 0.0 0.0 0.00 0.00 0.00 64 1007.0
20260504013037 5 0 0.0 0.0 0.00 0.00 0.00 61 1006.9
20260504011534 6 0 0.0 0.0 0.00 0.00 0.00 59 1006.9
20260504010030 6 0 0.0 3.2 0.00 0.00 0.00 58 1007.0
20260504004544 7 147 0.0 3.2 0.00 0.08 0.00 55 1006.8
20260504003043 7 0 0.0 1.6 0.00 0.08 0.00 53 1006.7
20260504001541 8 0 0.0 3.2 0.00 0.08 0.00 54 1006.7
20260504000053 8 147 0.0 3.2 0.00 0.08 0.00 49 1006.7
20260503234533 9 0 0.0 1.6 0.00 0.08 0.00 46 1006.5
20260503233030 9 0 0.0 3.2 0.00 0.08 0.00 43 1006.6
20260503231536 10 167 0.0 4.8 0.00 0.08 0.00 43 1006.4
20260503230036 10 144 0.0 3.2 0.00 0.08 0.00 40 1006.6
20260503224533 10 0 0.0 1.6 0.00 0.08 0.00 41 1006.6
20260503223038 10 0 0.0 3.2 0.00 0.08 0.00 41 1006.4
20260503221543 10 0 1.6 8.0 0.00 0.08 0.00 40 1006.5
20260503220037 10 233 1.6 4.8 0.00 0.08 0.00 41 1006.6
20260503214531 11 96 1.6 4.8 0.00 0.08 0.00 37 1006.5
20260503213035 11 0 0.0 3.2 0.00 0.08 0.00 35 1006.4
20260503211536 11 0 0.0 4.8 0.00 0.08 0.00 37 1006.6
20260503210030 11 16 1.6 6.4 0.00 0.08 0.00 36 1006.5
20260503204535 12 115 1.6 6.4 0.00 0.08 0.00 34 1006.5
20260503203049 11 344 3.2 12.9 0.00 0.08 0.00 37 1006.6
20260503201537 11 250 4.8 11.3 0.00 0.08 0.00 36 1006.7
20260503200033 11 325 1.6 8.0 0.00 0.08 0.00 40 1006.9
20260503194532 10 269 3.2 14.5 0.00 0.08 0.00 39 1007.0
20260503193032 9 149 1.6 14.5 0.00 0.08 0.00 43 1007.3
20260503191535 8 277 6.4 20.9 0.00 0.08 0.00 44 1007.3
20260503190039 9 294 3.2 12.9 0.00 0.08 0.00 43 1007.4
20260503184534 10 242 3.2 11.3 0.00 0.08 0.00 41 1007.5
20260503183037 9 266 3.2 14.5 0.00 0.08 0.00 43 1007.7
20260503181536 10 242 6.4 19.3 0.00 0.08 0.00 42 1007.7
20260503180035 10 244 4.8 14.5 0.00 0.08 0.00 42 1008.0
20260503174535 9 71 1.6 11.3 0.00 0.08 0.00 46 1008.0
20260503173046 8 273 3.2 11.3 0.00 0.08 0.00 45 1008.2
20260503171539 8 29 1.6 17.7 0.00 0.08 0.00 47 1008.4